Retour au catalogue

STARLINK-31746

ActifCommunicationsVLEO
NORAD 59613·PAYLOAD·🇺🇸 United States

Lancé Apr 28, 2024 depuis Cape Canaveral Space Force Station

Loading…

Prochains Passages (prochaines 24 heures)

TLE

FraisSource: CelesTrak SupGP

Époque: Sep 14, 2026, 21:06 UTC

1 59613C 24080N   26257.87965278  .00059371  00000+0  21504-2 0  2577
2 59613  43.0046  53.3956 0001770 277.1274 347.9581 15.27547866    18

Suivez STARLINK-31746 en temps réel avec AllMySat

Download on the App Store